ONEWEB-0608, 54672

Orbit data source: Space-Track

ONEWEB-0608, 54672 is a payload satellite owned by One Web (NAA) (UK) in LEO that was launched on Thu, 08 Dec 2022 UTC via an FALCON 9 launch vehicle from the Air Force Eastern Test Range (AFETR). Payload-class satellites include a variety of spacecraft equipped with specific instruments for various scientific and technological missions. These include communications satellites like Starlink; space stations such as the ISS; scientific satellites like the Hubble; Earth observation satellites from companies like Planet Labs, Umbra, and HawkEye 360; GPS; miniature CubeSats for education and research; and military/defense satellites.

Loading next visibility...
Identifier
54672, 2022-166AG
Orbit
LEO
Country
Flag of UKUK
Related business
Manufacturer
One Web
Mission
Operational Commercial Communications
Bus & Motor
ARROW, Unknown motor
Mass
148 kg wet, ~140 kg dry
Launch date (UTC)
2022-12-08 (4 years ago)
Launch vehicle
FALCON 9
Launch site
Air Force Eastern Test Range (AFETR)
Object type
Payload
Rocket body
Debris
Shape & HBR
Trap Box + 2 Pan, 6.7 m
Radar Cross Section
3.464 m², Large (>1 m²)

Expand to show TLE details & history
Last TLE update: 2 days ago

TLE from 2 days ago
0 ONEWEB-0608
1 54672U 22166AG  26171.46352833  .00000018  00000-0  11549-4 0  9995
2 54672  87.9266 243.3159 0002222  85.5555 274.5832 13.21827710171981
Epoch: 2026-06-20T11:07Z
TLE epoch observation values (Epoch: 2026-06-20T11:07:28.847Z)
Latitude
-0.00011°
Longitude
167.76791°
Altitude
1,180.518 km
Speed
7.263 km/s
True Right ascension
16h 13m 15s
True Declination
0° 00' 00"
Sunlit
Object was in full shadow at epoch
Visualization orbit readout
Latitude
Unknown
Longitude
Unknown
Altitude
Unknown
Speed
Unknown
Apparent Right ascension
Unknown
Apparent Declination
Unknown
Sunlit
N/A
Visualization observer readout
Local Sidereal Time
21:38:16
Azimuth
Unknown
Elevation
Unknown
Doppler factor
Unknown
Orbital elements
Apogee altitude
1,176.528 km
Perigee altitude
1,173.171 km
Semi-major axis
7,552.986 km
Eccentricity
0.00022
Inclination
87.9266°
RAAN
243.3159°
Arg. of periapsis
85.5555°
True anomaly
274.55782°
Mean anomaly
274.5832°
Eccentric anomaly
274.57051°
Mean motion
3.30647 °/min
Orbital period
108.88 mins
BSTAR
0.000011549
Loading maneuver chart data...
Computing Atmospheric mass density...
Loading historical data...
Loading historical data...
Loading historical data...
Loading historical data...
Loading historical data...
Loading historical data...
Loading historical data...

Documentation

Showing up to 5 results
|